STARLINK-35778 (66973 NORAD) Tracking and Keplerian Element Data

This shows tracking and keplerian element data for the satellite.

Feedback or suggestion? Click here.




ElementValue
Catalog66973
NameSTARLINK-35778
Epoch Orbit303
Epoch Day354.25003472
Epoch Year2025
RAAN121.1161
Inclination43.0018
Eccentricity0.0001729
Argument of Perigee272.6287
Mean Anonmoly111.6877
Mean Motion15.8115457
Decay Rate-0.0138824
L11 66973U 25288Q 25354.25003472 -.01388240 00000+0 -77025-2 0 9998
L22 66973 43.0018 121.1161 0001729 272.6287 111.6877 15.81154570 3039



Live tracking and technical data element details for STARLINK-35778 (NORAD 66973). STARLINK-35778 can be tracked NOW for your location showing map with azimuth and elevation plus other details from your city location.







IsCatalogInMostPopularTable: catalog: 66973, numindb: 21
Update: records affected: 1



GetName: 66973 STARLINK-35778

Hit Count: updated at: Sun, 19 Apr 2026 07:35:05 GMT